User: anonymous   Login
Location: Fort Wayne
(41.1310°N, 85.1290°W)
Time: 21:54:06
(UTC-04:00)
Language:

Iridium 37 - Orbit

View from above orbital plane
View from above orbital plane
View from above satellite
View from above satellite

Ground track
Ground track

The orbit data is extracted from the following two-line orbital elements,

1 24968U 97056D   16119.47542560  .00000014  00000-0 -20422-5 0  9998
2 24968  86.3943 132.2605 0002378  89.2545 270.8923 14.34218878973091
Epoch (UTC): 28 April 2016 11:24:36
Eccentricity: 0.0002378
inclination: 86.3943°
perigee height: 776 km
apogee height: 779 km
right ascension of ascending node: 132.2605°
argument of perigee: 89.2545°
revolutions per day: 14.34218878
mean anomaly at epoch: 270.8923°
orbit number at epoch: 97309

The dashed part of the orbit path shows where the satellite is in the earth's shadow,  

DLR